Find Starlink 31582

NORAD ID: 59545 Int'l Des: 2024-074 Owner: SPXS Country: US Constellation: starlink operational
LEOCIRCULAR

Live-Position

3D-Globus wird geladen...

Über Starlink 31582

Beschreibung wird geladen...

Nächste Überflüge

Passes for default location (London). Set your location on the main map for personalized predictions.

Höhenverlauf

Loading altitude history...

Zweizeiliger Elementsatz

1 59545U 24074M 26123.43761726 .00002872 00000-0 11388-3 0 9998
2 59545 42.9992 34.6505 0001002 285.1977 74.8764 15.27567002114388
Epoch: 3. Mai 2026 • Age: 18 hours

Aktueller Status

Höhe 484.0 km
Geschwindigkeit 7.62 km/s
Subsatellitenpunkt -6.04°S, 74.02°W
Startdatum 18. Apr. 2024
Alter 2 years
Typ internet

Technische Details

Klassifizierung Payload
Masse 730.00 kg
Trockenmasse 700.00 kg
Gesamtmasse 730.00 kg
Länge 0.30 m
Durchmesser 4.10 m
Spannweite 29.00 m
Form Box + pan
Hersteller SPXS
Bus-Typ Starlink V2M
Phasenstatus In Orbit
Besitzer/Staat SPXS/US

Most Searched